Theta_e
311 311 311 311 311 311 311 311 310 309 308 305 302 304 297 295 292 303 306 307 305 298 292 295 295 294 298 302 301 302 300 299 301 299 300 298 301 300 300 300 299 301 300 300 299 299 296 298 296 299 304 307 309 311 311 312 311 311 307 308 308 321 300 297 299 302 306 308 310 310 310 308 305 305 305 303 300 300 297 296 300 297 299 295 295 295 297
311 311 311 311 311 311 311 311 310 310 309 305 305 299 295 296 295 297 305 307 305 296 288 289 292 295 298 297 296 299 298 297 296 297 298 298 298 298 298 300 302 300 303 301 298 301 294 299 299 299 303 302 309 311 311 311 309 309 307 304 309 302 302 299 294 294 296 301 304 305 308 307 304 302 304 305 304 303 302 301 306 297 298 298 294 291 295
311 311 311 311 311 311 310 311 310 310 310 309 303 296 297 296 298 298 301 306 302 293 295 293 291 293 293 292 292 294 296 299 298 298 297 301 300 299 298 300 301 300 303 301 302 302 299 296 301 301 301 301 306 306 309 312 309 311 315 326 311 305 302 299 293 290 288 289 291 293 297 301 303 305 304 304 304 302 299 295 296 291 299 301 296 295 299
311 311 310 311 311 311 310 310 310 311 310 309 304 299 296 292 286 293 295 299 299 298 300 296 293 292 292 291 293 296 294 297 300 300 299 301 301 299 299 301 301 300 299 296 296 298 302 298 298 299 299 301 304 305 305 307 306 321 331 326 312 304 305 302 299 296 294 297 300 311 309 302 300 302 304 303 304 304 302 299 294 291 296 299 298 301 303
311 310 310 310 310 310 310 309 309 309 309 308 303 300 297 297 289 290 288 295 295 294 296 294 295 291 294 287 293 291 292 294 296 301 295 300 298 298 299 298 296 295 296 294 296 299 298 301 299 299 298 300 301 304 305 306 311 323 325 331 313 305 301 303 302 301 302 306 306 307 308 303 303 303 303 305 304 303 302 297 295 299 297 287 297 304 302
310 310 310 310 310 309 309 309 308 309 308 308 305 295 297 288 293 295 297 289 286 289 291 294 292 294 294 290 294 291 291 293 291 297 299 299 300 295 295 296 297 296 294 295 292 295 295 297 294 297 297 297 300 298 304 305 312 314 311 319 311 306 300 304 304 302 303 305 306 308 307 306 305 304 304 303 304 303 300 300 301 302 296 294 298 306 307
310 310 310 310 310 309 309 309 308 309 307 307 303 293 296 295 295 294 298 290 292 292 293 294 293 292 293 292 292 290 291 291 294 294 294 295 295 296 290 293 294 295 296 295 293 294 290 291 295 295 294 295 296 296 298 304 306 306 303 310 314 307 302 306 305 303 303 304 304 305 305 305 305 304 304 304 304 303 303 302 303 302 301 302 302 304 307
310 310 310 310 310 309 309 309 309 309 307 306 300 298 292 291 291 291 296 295 292 293 293 293 292 290 294 289 290 291 291 290 293 295 293 289 291 296 292 292 294 295 296 295 292 294 295 294 291 296 295 295 297 296 298 298 303 304 302 303 308 306 305 309 305 302 301 304 305 305 304 303 303 304 304 305 305 304 304 304 303 305 302 303 303 302 302
310 310 310 310 310 310 309 309 308 307 307 301 298 297 299 298 299 297 291 288 291 293 292 291 291 289 290 289 291 292 290 290 294 293 296 293 291 293 291 294 294 296 295 294 294 297 296 296 295 297 296 292 298 295 297 302 298 301 302 304 305 307 304 307 306 299 300 304 304 304 304 304 303 302 304 303 303 301 303 302 304 302 301 304 303 300 301
310 310 310 309 309 309 309 309 309 307 306 301 299 295 301 301 305 300 296 287 293 289 292 292 290 287 291 292 291 291 292 293 294 290 295 296 296 296 295 295 294 293 294 293 295 297 297 297 298 298 299 301 301 302 302 302 300 300 301 304 302 304 303 300 299 296 298 303 305 304 303 302 299 300 303 305 304 305 304 304 306 305 304 300 298 298 303
309 310 309 309 309 309 309 309 309 308 306 300 298 297 299 297 295 297 296 287 290 291 290 289 288 291 294 294 292 294 292 293 294 289 289 295 296 298 297 296 294 292 292 295 301 301 300 301 301 301 302 302 302 302 303 304 305 303 303 303 304 304 304 300 302 295 297 302 304 305 300 293 295 305 308 307 305 305 303 303 304 305 305 303 304 304 310
309 309 309 309 309 309 309 309 309 309 306 305 304 300 301 302 301 297 291 286 287 292 290 288 289 291 291 293 292 292 291 292 292 295 291 293 295 298 297 295 295 290 299 304 303 303 302 303 303 303 303 303 303 303 303 303 304 307 307 304 303 303 304 300 303 298 296 301 304 298 293 295 306 308 310 310 309 308 306 307 307 307 307 306 305 305 306
309 308 309 309 309 309 309 309 309 309 308 307 305 298 302 305 299 295 293 288 285 288 287 288 293 293 293 293 292 293 294 295 295 296 295 294 294 296 297 296 294 296 302 301 302 300 295 294 297 298 299 300 302 302 302 302 302 305 306 308 305 303 302 300 300 300 300 300 297 291 293 308 310 310 312 317 312 310 311 306 308 311 310 312 310 313 314
309 309 309 309 309 310 309 309 309 309 309 307 303 303 303 304 297 296 294 289 288 291 292 290 292 291 292 292 293 293 294 294 296 297 294 296 294 295 298 300 300 302 301 301 303 302 294 295 291 294 294 297 297 296 299 301 302 302 304 307 308 306 306 306 300 302 295 296 295 296 306 303 307 307 312 309 308 311 308 300 305 316 315 315 315 314 316
309 309 310 310 309 309 309 309 309 309 309 308 306 304 304 305 302 298 299 294 286 290 292 286 289 291 292 292 293 292 291 292 292 292 296 297 296 298 299 301 303 303 302 298 298 299 294 292 287 287 291 291 287 291 300 298 303 305 306 307 308 307 303 309 298 298 299 295 293 294 294 293 299 311 312 314 315 315 314 312 307 319 320 321 318 317 319
310 310 309 310 309 309 309 309 309 309 308 308 305 304 304 305 306 303 298 293 290 283 289 293 295 293 291 291 293 291 289 290 291 292 292 293 295 298 300 302 303 304 302 300 299 297 295 290 286 288 287 290 295 294 292 299 298 304 306 307 307 307 307 312 306 301 300 296 292 291 291 296 305 313 316 317 317 317 318 308 301 319 321 322 322 323 325
309 309 310 310 308 309 309 309 308 308 308 308 305 303 302 308 305 301 298 296 292 287 295 296 296 295 293 291 293 292 294 290 292 288 287 289 293 295 299 301 303 303 301 296 299 295 292 289 291 291 293 295 292 292 298 296 295 297 303 305 305 304 304 305 301 301 301 300 294 293 299 300 312 314 313 316 315 316 311 297 299 319 321 322 323 324 326
309 309 310 310 310 310 310 310 310 309 308 309 305 303 303 308 308 303 299 295 290 291 295 297 295 292 291 293 290 294 296 295 294 295 292 293 294 296 297 298 296 302 303 294 295 291 290 290 287 288 287 297 298 298 288 296 294 295 296 299 299 300 301 300 299 300 301 301 299 300 303 317 320 318 316 319 318 315 300 291 308 324 322 323 324 325 326
310 310 310 310 310 310 310 310 310 310 310 308 307 305 304 306 307 305 301 296 293 288 296 300 300 296 298 300 296 296 297 295 295 289 289 290 294 297 297 298 300 294 299 293 294 291 289 289 292 291 288 293 296 292 299 294 293 299 299 297 298 299 302 301 300 298 299 299 299 298 303 313 319 321 319 320 314 299 297 315 325 325 323 325 326 324 325
309 309 309 309 309 309 309 309 309 309 309 309 307 301 303 305 307 306 300 294 295 292 296 297 298 296 299 296 293 293 295 295 297 292 289 287 298 297 293 290 300 298 295 298 289 295 289 287 290 293 289 291 295 302 297 297 300 297 297 305 300 300 300 299 299 300 300 304 298 292 286 307 319 322 317 318 308 310 321 324 324 326 325 325 325 326 326
309 309 309 309 309 308 309 308 308 308 308 308 307 303 301 306 306 308 306 301 295 291 293 301 301 300 300 299 300 301 297 294 295 293 294 294 300 295 284 286 291 293 292 293 287 289 292 290 293 292 297 297 300 300 292 296 298 307 306 304 303 310 302 299 302 306 298 296 293 292 303 316 319 315 307 315 320 326 327 322 320 324 325 325 325 327 329
308 309 309 309 308 309 308 309 309 308 308 308 307 305 300 304 307 308 306 305 297 294 296 300 302 300 301 302 302 302 300 299 301 301 296 293 299 295 295 295 294 295 298 298 294 293 295 294 297 293 292 295 301 296 298 292 291 300 309 307 298 310 304 307 298 308 305 302 306 312 314 317 321 323 319 322 324 326 325 324 323 322 324 327 326 328 331
308 308 308 309 308 309 308 308 308 308 308 308 307 304 300 302 305 308 307 299 301 301 303 301 302 303 304 305 306 306 306 306 303 302 301 296 293 296 295 294 294 303 302 303 296 295 295 294 291 297 294 296 295 295 298 298 296 300 298 307 306 311 311 315 310 308 316 315 315 318 316 317 321 323 323 323 324 326 325 324 320 320 319 320 322 327 331
309 309 308 308 308 308 309 308 308 308 308 308 307 303 302 303 305 305 303 301 297 293 297 300 297 295 297 299 304 306 306 306 306 305 306 303 293 293 297 299 300 299 302 302 307 298 298 297 296 299 292 299 300 295 292 294 296 301 300 302 305 309 310 309 305 310 303 297 315 315 315 317 319 321 324 324 324 322 322 319 318 317 318 318 318 319 324
308 308 308 308 309 308 308 308 308 308 308 308 307 308 307 304 306 306 299 293 294 293 287 291 294 299 302 304 305 304 304 306 307 306 305 304 300 295 293 301 301 300 300 304 308 304 302 294 295 296 291 300 300 291 303 296 296 304 296 301 303 304 314 308 308 307 306 306 314 317 319 319 317 317 319 320 320 321 321 319 318 317 317 317 317 318 317
308 308 308 308 308 308 308 308 308 308 308 308 308 304 303 302 307 308 305 301 299 296 289 288 293 302 305 303 301 303 307 306 305 304 304 303 304 303 301 302 301 308 307 306 305 300 301 299 298 297 293 296 305 297 295 302 301 306 301 300 307 308 312 302 307 305 308 313 317 316 318 318 316 319 319 318 318 318 317 317 316 316 316 316 315 315 315
308 308 308 308 308 308 308 308 308 308 308 308 306 306 305 305 308 307 302 300 295 291 293 290 294 299 302 299 303 305 305 304 304 304 303 304 303 304 303 301 299 300 299 300 303 300 302 300 298 294 296 298 305 302 304 302 301 300 300 306 311 308 304 310 308 303 302 306 309 314 308 307 315 315 318 320 318 317 316 316 316 317 316 316 314 312 313
309 309 308 308 308 308 308 308 308 308 308 308 307 306 307 305 307 308 308 305 297 290 291 290 291 295 301 298 304 305 305 305 305 303 302 302 303 303 302 301 301 299 298 297 295 296 296 294 294 300 301 302 300 300 308 307 308 303 302 306 309 305 307 307 302 303 302 310 314 317 317 317 316 317 319 319 320 319 316 315 315 316 317 317 314 310 310
309 309 308 308 308 308 308 308 308 308 308 307 306 305 305 307 309 310 309 310 306 298 296 295 297 295 291 296 303 302 304 304 303 303 301 301 302 302 301 300 300 299 299 299 299 299 299 298 301 297 297 306 300 298 302 297 297 296 303 308 310 311 313 311 310 310 312 315 317 318 316 314 317 319 319 318 319 316 315 315 316 316 315 314 313 312 310
308 308 308 308 308 308 308 308 308 308 308 306 304 301 297 300 306 308 308 307 306 302 293 290 287 291 300 300 299 302 303 305 304 303 302 300 300 300 300 300 300 301 301 299 300 295 299 300 302 303 304 308 299 301 298 299 297 301 309 311 312 314 314 315 316 312 310 318 319 319 321 320 321 321 320 321 319 319 316 315 315 314 314 315 313 313 313
309 309 309 308 308 308 308 308 308 308 307 304 301 294 292 291 302 309 309 308 309 302 296 295 290 296 295 301 301 302 304 305 304 302 301 302 301 300 301 301 301 302 298 298 300 298 302 298 299 300 305 306 304 300 298 297 295 301 306 310 311 312 312 313 316 317 317 318 319 321 320 319 320 321 318 319 318 318 317 318 319 319 316 314 313 313 314
309 309 309 309 308 308 308 308 308 308 306 302 298 296 298 300 304 307 308 307 306 299 294 290 290 291 292 295 301 304 304 305 304 304 304 303 300 301 300 300 298 301 301 303 305 300 300 302 299 300 300 305 305 301 301 298 296 299 307 310 312 313 314 313 314 315 318 319 319 317 314 315 316 314 312 316 317 316 315 315 316 317 319 317 316 315 314
309 309 309 309 309 309 308 309 309 308 305 305 307 307 307 306 306 306 306 305 303 298 300 293 288 291 290 293 299 302 305 304 301 301 302 304 300 301 297 300 299 299 306 303 297 297 303 301 302 299 302 308 302 301 299 298 301 307 309 310 312 313 313 314 315 316 316 320 320 314 311 312 313 315 317 318 317 314 311 311 313 314 314 315 316 315 314
309 309 309 309 309 309 309 309 309 308 307 305 301 303 307 308 308 307 308 307 301 301 300 293 289 289 289 299 293 299 306 300 299 303 298 305 305 301 299 298 299 296 301 297 302 301 304 302 298 301 305 303 306 300 295 301 307 307 309 310 312 312 313 313 313 313 314 315 319 318 315 315 317 319 318 316 312 312 313 311 312 313 313 313 312 311 312
310 309 309 309 309 310 309 309 307 306 302 302 303 307 307 305 309 311 308 304 295 294 294 294 294 288 288 291 290 296 306 303 298 300 298 303 309 303 303 301 301 294 302 305 302 299 299 300 304 297 296 304 300 295 300 303 305 307 308 309 311 312 311 310 310 312 313 315 317 318 317 318 318 316 314 312 312 312 311 312 313 313 311 311 314 315 313
309 309 309 310 310 310 309 309 307 304 302 301 303 312 311 312 310 308 308 308 302 295 293 293 294 289 291 285 287 297 305 301 304 302 304 303 301 308 306 301 296 299 304 302 297 301 298 304 301 295 304 297 295 300 303 307 305 306 307 308 309 310 309 308 310 313 313 313 314 314 315 316 315 314 314 314 314 314 315 314 315 314 311 310 311 314 315
309 309 310 309 310 309 305 306 310 306 303 307 310 312 312 310 310 310 308 306 307 306 296 294 290 290 292 291 296 302 302 294 303 300 302 301 298 304 304 299 295 303 302 298 298 297 301 309 299 295 297 296 299 305 307 306 306 305 306 308 310 311 312 313 313 313 311 310 310 310 311 311 311 312 313 314 315 313 314 314 315 315 312 312 314 315 316
309 309 309 309 306 302 301 304 306 313 314 312 312 308 306 304 299 301 302 298 302 302 298 297 290 293 297 294 290 301 300 298 304 296 298 304 299 298 303 298 298 299 291 295 298 309 304 301 297 296 297 303 305 307 308 309 308 309 309 310 311 312 313 313 313 312 310 309 308 309 309 309 309 309 310 312 314 313 315 316 315 316 316 317 318 318 320
309 309 309 308 303 300 300 306 316 315 309 311 309 301 299 302 298 293 294 298 300 293 298 295 291 294 295 293 295 303 299 298 296 299 294 302 298 292 300 291 299 300 290 291 296 308 292 294 296 297 295 301 303 305 309 310 310 310 312 312 313 313 314 314 314 312 310 309 310 311 309 307 308 309 312 312 313 315 314 314 314 315 317 318 318 319 318
311 305 303 303 303 304 310 314 315 312 309 303 303 300 294 300 292 288 300 291 290 296 298 290 299 298 300 295 295 295 305 300 294 295 298 299 307 296 299 298 298 296 287 286 292 305 293 287 294 294 293 300 302 307 309 309 308 310 311 313 314 315 314 314 313 314 314 313 313 312 314 313 312 309 311 313 316 315 315 315 315 315 315 316 319 316 316
307 305 304 301 304 306 307 310 311 309 305 301 300 299 297 290 297 299 297 291 290 290 300 297 300 296 301 302 301 294 306 310 308 308 301 296 308 305 297 292 303 293 287 286 298 301 297 294 293 292 294 301 303 306 308 309 309 310 312 315 315 314 315 314 314 314 314 313 314 314 313 314 314 315 315 316 315 315 315 316 316 318 319 317 316 316 316
306 303 304 306 307 307 307 308 307 304 303 304 294 288 292 293 299 298 298 289 293 298 299 299 297 300 300 304 303 304 303 313 309 305 301 296 303 299 296 298 299 290 286 296 302 299 297 288 288 292 299 303 304 306 307 308 310 311 313 314 315 314 314 314 313 314 315 314 315 315 315 315 315 315 316 316 315 315 316 316 316 317 317 318 319 317 318
307 308 308 306 306 306 308 297 302 301 289 289 288 286 292 288 292 292 295 300 303 301 302 306 305 311 308 309 304 307 306 311 303 302 300 297 305 304 298 291 291 286 292 302 299 295 290 288 289 296 302 304 306 307 312 311 312 313 313 315 314 315 316 315 314 313 315 315 315 314 314 314 315 315 317 316 316 316 317 318 319 318 318 318 318 319 319
309 310 306 307 300 300 301 285 298 296 289 290 287 284 290 289 292 297 293 296 300 299 303 300 302 302 297 306 303 305 307 307 309 305 302 305 302 296 294 287 291 300 305 297 294 288 291 295 297 300 304 306 307 310 312 311 311 312 312 314 316 316 314 313 314 314 315 316 316 316 316 316 315 315 316 316 316 315 316 317 319 319 319 318 318 319 320
306 302 296 292 289 294 292 286 295 288 284 288 291 291 291 288 292 294 294 301 303 299 305 306 305 304 302 307 308 307 307 301 310 302 297 302 297 298 294 291 299 300 295 289 291 291 292 292 301 304 305 306 308 309 312 312 313 311 311 312 312 313 313 313 313 313 312 312 313 314 313 314 314 314 315 316 316 317 316 316 317 318 317 318 318 319 320
305 296 294 289 287 290 291 288 289 286 294 298 296 297 296 297 298 298 303 307 303 305 304 304 305 305 303 309 303 301 306 305 300 301 303 302 295 290 300 303 302 295 292 290 287 287 289 296 300 302 305 307 309 311 312 312 312 313 311 310 310 312 313 314 313 313 313 313 314 314 314 314 314 314 314 315 315 316 316 317 318 318 318 317 317 318 319
302 307 297 293 290 292 300 289 291 296 297 298 300 301 301 302 303 304 305 305 303 306 307 308 307 304 301 303 304 304 306 305 299 302 306 295 293 297 302 298 289 292 288 287 288 291 295 299 303 306 307 309 309 310 312 313 315 315 315 315 315 313 313 313 314 313 314 314 314 314 314 314 314 314 314 314 314 316 317 317 317 318 318 317 318 319 320
295 303 300 289 288 293 291 297 301 302 305 303 302 304 307 309 305 303 307 309 309 308 307 307 304 307 305 309 309 300 302 304 300 301 304 298 300 298 291 293 292 294 294 291 292 297 299 302 305 307 309 309 309 311 312 312 311 313 317 313 312 312 312 312 313 313 314 314 314 314 314 314 315 315 314 314 314 316 317 318 318 318 318 317 316 316 316
309 298 293 292 296 297 300 303 302 298 301 303 304 305 306 305 303 305 307 309 309 309 310 307 306 306 301 305 302 301 296 302 295 291 302 298 293 289 291 287 289 287 295 297 297 300 302 305 308 309 310 311 310 311 311 311 312 312 311 311 311 311 312 312 313 314 314 314 315 315 314 315 315 315 314 314 314 315 317 317 318 319 319 318 316 315 315
296 294 304 295 301 299 301 305 301 298 300 302 304 304 305 306 305 306 308 307 308 308 309 310 310 304 300 301 293 296 295 300 299 296 297 293 295 297 295 289 291 291 294 299 300 303 305 307 308 308 309 310 311 311 311 312 313 313 313 314 314 313 312 312 313 314 315 315 314 315 316 316 314 314 314 313 314 315 316 318 319 317 316 318 319 318 317
306 297 300 306 300 298 300 295 296 297 298 299 301 302 304 305 305 306 312 311 313 308 304 300 300 297 293 293 292 289 291 302 299 295 295 294 298 296 292 291 293 298 300 304 305 306 307 309 309 308 308 309 312 314 314 314 314 314 315 314 314 314 313 312 312 313 314 314 316 319 318 318 318 318 318 316 314 314 313 314 316 318 319 319 318 315 315
296 293 298 303 305 304 303 303 304 303 304 305 304 305 308 304 306 309 314 312 306 302 299 303 300 295 292 291 295 299 302 298 293 295 293 296 300 296 295 296 298 301 303 304 305 308 309 310 311 310 310 311 312 312 314 315 316 316 315 314 315 314 314 314 314 315 313 313 314 313 313 314 314 314 315 313 313 312 310 310 314 316 315 316 319 319 317
Wind_Speed
20 20 20 19 18 16 15 14 13 12 13 9 8 8 8 7 12 17 22 21 16 10 8 8 8 10 11 14 19 19 17 16 13 17 16 15 13 13 14 14 15 15 13 15 15 15 12 15 13 15 11 11 15 10 13 16 19 20 8 15 14 14 7 7 9 6 12 14 7 18 20 18 15 14 14 12 13 9 7 3 3 3 3 8 4 9 5
21 21 20 19 17 16 14 14 13 11 9 7 7 7 7 9 12 15 14 12 10 6 6 6 8 9 12 15 18 15 17 16 15 13 14 12 10 13 12 15 15 17 16 15 17 14 11 12 14 14 10 9 12 13 22 13 11 16 8 8 13 9 9 6 4 6 5 10 7 11 17 16 12 10 12 15 12 12 11 7 2 7 8 5 7 10 6
21 21 20 17 17 14 13 13 12 10 9 7 6 5 6 9 10 12 12 10 7 9 7 9 9 12 14 15 17 15 13 10 14 13 13 13 11 11 11 15 18 16 14 17 17 17 14 14 17 16 17 13 14 17 11 21 19 11 13 16 10 15 8 12 9 12 14 13 13 10 15 16 9 7 11 17 19 15 10 12 6 5 7 13 6 5 6
21 21 20 18 16 14 13 13 10 9 8 7 5 5 6 6 9 7 9 9 8 8 8 11 11 12 12 12 10 12 12 13 15 15 15 13 13 11 14 10 18 14 18 15 15 15 15 15 13 10 11 10 7 14 30 23 15 19 16 19 11 7 8 14 15 12 10 10 4 2 1 10 14 16 14 12 18 16 12 5 6 11 3 7 10 10 3
21 21 20 18 16 15 12 12 13 11 9 8 5 4 4 5 6 7 9 10 6 7 10 10 10 8 9 7 9 15 15 13 15 12 9 10 12 13 8 12 13 14 17 17 15 12 19 15 15 15 16 17 15 25 7 15 17 29 25 14 11 5 9 14 18 18 11 5 7 8 8 7 15 16 19 16 12 16 17 12 15 6 1 7 4 6 13
22 21 21 19 15 15 14 11 11 11 10 9 4 5 4 5 4 9 5 4 10 13 9 12 13 16 14 10 10 14 14 13 11 13 9 10 10 9 8 8 11 14 15 16 12 18 15 9 15 20 16 20 21 20 18 11 17 27 21 9 10 7 8 12 15 19 21 17 9 10 15 13 9 16 15 19 18 12 16 16 13 7 8 12 6 2 4
22 22 21 20 15 12 14 12 10 9 8 6 3 4 5 7 8 9 11 9 9 10 14 18 17 17 14 8 11 15 15 14 12 8 13 12 7 4 11 12 12 15 15 11 8 9 12 10 15 12 19 18 19 14 26 11 18 17 20 15 3 2 5 6 14 14 16 19 21 18 14 13 12 13 16 14 19 22 18 11 10 12 7 9 12 7 9
23 22 21 19 16 14 12 12 10 7 6 5 4 6 6 6 5 5 5 5 10 13 12 11 12 12 12 9 8 12 13 16 13 11 7 9 9 5 11 14 13 13 10 9 9 12 13 15 17 17 17 19 6 14 8 13 17 18 14 12 15 11 3 11 3 6 14 19 17 20 20 16 13 10 13 18 17 18 20 17 11 9 11 10 8 9 13
22 22 21 20 18 15 13 12 9 7 2 4 5 4 6 5 5 3 6 10 7 8 9 10 9 9 10 8 9 10 13 16 16 14 9 11 13 9 9 10 14 8 10 11 12 13 15 15 16 17 15 13 14 9 8 15 19 21 17 10 15 15 3 2 3 2 3 10 21 22 17 18 18 17 13 16 18 15 14 15 14 12 7 5 6 7 9
22 22 21 20 17 15 14 13 9 6 5 5 4 8 6 6 1 1 2 5 7 8 9 10 9 9 6 9 11 9 11 13 13 14 8 8 10 12 9 8 8 9 9 11 13 15 17 16 16 16 15 14 17 16 17 15 15 14 15 14 12 11 5 6 5 2 3 3 3 13 20 15 17 22 22 9 7 11 6 10 17 17 12 11 8 8 5
21 21 21 20 18 17 16 14 12 7 5 6 5 5 6 5 4 2 3 6 7 8 9 9 11 7 10 7 12 12 13 15 13 9 7 11 11 10 10 8 7 7 10 11 13 14 16 16 18 15 16 18 17 18 17 20 17 15 14 11 9 12 12 5 7 4 2 3 8 7 5 15 18 9 8 8 8 4 13 11 5 9 14 9 11 9 5
22 21 20 18 18 17 16 15 13 9 7 8 5 7 7 5 2 2 4 6 8 8 8 9 10 10 13 14 13 13 15 14 14 11 13 13 16 11 9 11 9 9 9 9 14 8 11 17 16 14 15 17 17 21 21 20 17 14 13 14 13 14 10 7 4 5 3 4 3 6 9 8 5 8 11 14 9 8 8 6 6 7 6 12 10 6 7
22 16 18 18 17 17 16 15 13 10 7 5 4 8 6 2 1 4 3 5 8 8 9 11 12 15 16 16 13 13 14 14 13 12 13 12 16 17 10 8 9 12 9 13 8 7 10 14 15 14 13 16 14 17 20 18 18 17 14 13 11 9 7 6 2 4 3 1 3 7 8 2 5 3 3 2 2 3 1 5 5 4 5 4 1 2 2
22 19 18 17 17 16 15 14 12 10 8 6 6 8 6 5 4 4 3 4 7 7 9 12 14 13 13 13 11 13 16 13 11 9 10 8 13 16 13 10 12 12 12 10 6 2 7 5 9 7 9 9 12 13 12 14 14 17 18 13 12 10 5 3 3 4 6 5 5 5 3 5 4 2 1 1 0 1 1 3 1 5 7 6 4 5 5
19 18 16 17 16 14 13 12 11 10 10 6 6 6 6 4 4 6 1 3 8 9 7 8 9 12 14 12 10 9 10 9 11 9 10 11 11 9 11 12 10 15 16 8 3 3 2 5 5 6 6 3 6 5 10 7 7 11 13 11 8 6 4 1 3 3 3 5 4 3 3 8 5 2 4 4 4 7 7 3 1 5 5 6 6 4 6
17 16 17 16 15 13 12 11 11 10 10 7 6 6 6 6 4 4 4 4 4 8 5 7 7 10 12 11 12 12 9 8 7 8 8 7 10 13 13 12 11 12 15 4 2 4 1 3 5 3 4 3 6 7 5 8 7 10 10 9 9 8 5 1 2 0 1 3 4 6 7 3 3 2 0 4 3 3 4 4 2 3 3 7 9 10 8
16 15 15 14 14 13 13 12 12 10 10 6 5 5 7 3 4 5 4 4 5 10 9 14 15 15 11 11 10 6 3 7 7 7 6 6 9 12 10 12 11 6 11 8 3 2 2 3 5 4 5 4 4 4 10 6 7 8 16 18 19 7 3 5 4 1 0 0 6 6 1 1 2 2 5 7 8 4 2 1 2 3 3 5 9 11 9
16 15 15 13 12 12 12 12 12 10 9 5 5 6 7 4 3 2 3 6 7 9 9 12 13 8 6 3 8 9 6 5 6 7 6 7 7 6 10 9 9 6 8 7 3 3 4 2 3 5 5 4 4 6 5 7 6 3 7 9 5 10 5 2 3 2 1 3 2 1 1 1 1 4 5 2 6 4 4 5 3 1 6 7 10 11 9
15 14 14 14 14 13 13 12 11 10 9 6 4 6 7 7 6 6 4 5 5 8 6 8 12 14 13 12 11 10 8 6 2 4 8 8 2 5 12 11 6 4 5 3 6 6 4 4 3 4 5 2 2 3 5 4 3 7 9 9 9 9 7 5 6 4 2 2 1 2 1 1 0 3 8 9 2 4 4 2 1 5 6 9 9 10 9
16 15 15 14 13 12 12 11 10 9 9 6 3 5 7 8 6 6 4 6 4 10 11 10 10 15 11 11 10 9 8 6 3 2 5 8 4 10 9 2 0 5 3 2 5 5 6 7 6 3 7 5 2 3 4 6 7 4 4 3 2 3 6 3 3 5 2 4 4 5 1 2 1 3 5 5 4 3 2 2 7 6 6 8 9 10 8
16 16 15 14 13 12 12 11 11 10 9 9 6 6 7 4 6 4 7 6 4 9 10 7 10 11 12 12 12 11 12 10 7 6 6 7 2 2 3 2 6 5 2 4 3 4 4 3 1 3 3 1 2 0 3 4 5 1 2 1 1 2 3 4 4 7 5 0 2 3 3 11 5 5 7 1 3 3 2 3 6 6 6 6 7 10 8
16 15 15 14 13 12 12 11 11 11 11 10 9 6 8 6 3 3 3 5 6 9 10 13 13 15 17 17 16 15 16 16 14 11 9 9 2 6 7 9 9 4 2 2 1 3 3 3 3 2 3 3 1 2 2 3 3 2 1 2 0 5 1 1 3 4 1 3 5 10 18 20 10 9 8 5 5 5 8 8 7 6 7 5 10 10 10
16 15 14 14 13 13 12 12 12 11 11 11 9 5 8 8 5 1 3 4 6 8 9 11 12 13 14 17 18 17 16 14 14 13 12 9 7 6 8 7 7 4 2 2 1 2 5 5 5 3 5 3 3 1 2 2 3 5 3 1 4 3 2 6 3 1 3 9 9 5 12 17 19 7 5 8 7 9 10 11 11 10 10 10 9 9 12
15 15 15 15 14 14 13 13 13 12 11 11 8 6 7 7 7 4 4 4 5 7 9 9 8 7 7 10 11 8 11 14 14 12 10 8 9 8 5 7 8 2 3 4 3 2 1 3 5 3 4 2 3 2 1 1 1 4 4 3 4 3 1 3 2 4 7 4 7 11 13 19 20 10 2 11 14 11 10 12 11 10 12 13 13 11 12
16 15 15 15 15 14 14 14 14 13 12 12 11 7 7 7 4 2 3 4 4 4 8 9 11 13 15 13 12 12 9 8 8 11 12 11 11 10 10 2 2 2 3 7 5 3 2 3 5 3 4 1 2 2 1 2 2 3 4 2 5 2 8 4 2 6 1 4 6 8 9 13 14 14 5 12 15 15 13 12 11 12 14 14 11 13 14
17 16 16 16 15 15 14 14 14 14 13 13 12 8 7 8 5 5 4 4 5 4 6 9 11 10 9 11 10 10 11 10 11 12 12 13 13 13 12 8 8 2 2 5 5 4 3 3 3 5 6 3 2 2 1 1 4 1 2 5 2 5 8 3 5 4 5 6 1 4 9 11 13 16 15 11 8 13 14 13 14 15 16 15 16 15 13
17 17 17 16 16 15 15 14 14 13 13 12 9 8 8 8 7 6 5 4 5 5 6 8 8 10 11 17 17 15 15 14 13 14 14 15 16 13 11 9 8 5 5 3 2 3 3 4 3 5 5 3 3 2 2 3 1 2 2 3 2 3 1 3 4 3 3 2 2 8 3 6 10 10 11 12 9 12 15 14 15 14 13 12 15 14 13
18 17 17 16 16 16 15 15 14 14 12 13 10 9 8 9 7 7 7 6 6 5 7 9 10 11 14 18 17 13 10 8 10 13 13 13 16 15 12 11 5 4 4 5 4 4 3 5 6 4 5 2 3 2 2 3 2 2 3 1 2 3 2 3 2 3 4 5 7 3 2 2 5 8 10 6 7 9 14 14 14 13 12 11 13 13 14
19 19 18 17 16 16 16 15 14 14 12 11 8 9 9 9 6 1 0 4 4 4 6 9 10 10 8 9 13 13 14 14 12 12 12 12 12 12 11 8 5 6 7 5 3 2 1 3 2 4 4 2 2 3 2 1 1 2 0 1 1 2 5 5 5 7 11 11 8 1 2 1 3 7 9 11 8 7 12 12 12 12 12 13 14 12 12
20 19 19 18 17 17 17 16 15 14 12 8 7 5 6 1 2 2 3 3 4 1 4 7 9 5 8 11 15 15 14 14 12 12 14 11 11 9 7 7 6 7 4 3 2 5 2 0 2 5 7 6 3 1 2 1 1 2 1 1 0 3 4 4 5 5 8 7 1 5 4 3 3 3 7 7 8 8 9 9 9 11 12 12 13 11 10
21 20 20 19 18 17 17 16 15 13 10 6 4 4 4 3 1 3 3 3 5 1 5 5 9 9 11 8 10 7 5 9 14 11 10 10 8 9 8 6 4 5 5 4 3 4 3 1 1 4 4 8 5 2 0 1 2 2 1 2 2 4 4 6 5 6 9 6 5 6 4 2 1 1 8 7 6 7 7 8 8 10 10 11 12 10 9
22 21 20 20 19 18 18 17 15 11 7 7 6 5 2 3 2 6 8 8 6 6 6 7 7 6 6 6 5 8 10 11 11 6 3 5 7 6 4 5 5 6 5 1 0 2 1 3 6 7 6 2 5 2 1 2 4 2 2 3 2 3 4 6 8 9 9 4 5 9 7 6 6 4 5 7 8 7 6 7 7 7 10 9 9 10 11
22 21 20 18 19 20 19 18 17 11 8 9 13 16 19 22 24 20 8 4 3 5 2 3 6 5 5 6 11 11 7 7 1 1 1 2 6 3 6 6 6 4 3 5 1 2 1 2 4 6 2 3 3 2 2 4 2 0 1 2 3 2 4 5 7 5 6 2 4 2 5 5 4 5 6 8 7 6 5 7 6 6 7 8 9 9 9
21 19 18 17 18 18 16 15 13 12 11 8 7 8 8 16 15 18 8 3 4 3 2 4 5 5 7 7 8 3 7 4 4 3 3 1 3 5 2 4 6 4 3 4 2 1 1 4 5 3 0 3 2 1 3 1 2 2 2 3 3 3 2 4 5 6 5 6 5 6 8 8 6 5 5 7 6 5 5 4 4 6 7 8 8 7 5
20 18 17 19 19 17 18 17 8 6 6 6 8 6 1 2 1 7 6 3 3 3 3 3 3 5 6 4 4 6 5 3 3 5 3 4 6 4 4 4 3 5 1 2 2 2 4 1 2 2 3 2 3 3 2 4 3 3 2 4 6 4 3 4 6 7 6 6 4 3 7 9 8 7 5 6 6 5 5 4 4 6 8 7 6 5 4
19 18 17 17 18 15 8 5 5 4 4 5 5 4 5 5 5 4 5 3 3 3 4 3 2 5 3 5 5 3 4 5 4 2 1 2 3 3 2 3 2 3 2 2 0 2 1 2 2 3 2 2 1 0 3 4 6 5 5 5 5 5 3 2 4 5 6 5 6 8 7 4 7 6 6 7 7 5 4 5 5 6 7 7 6 4 4
20 15 15 15 8 2 4 3 3 6 5 1 2 5 5 3 3 2 3 4 2 1 4 3 5 7 4 5 4 2 2 3 1 2 1 2 1 2 1 3 1 2 1 2 2 3 1 2 1 3 4 1 3 3 4 5 6 6 6 5 3 4 4 3 4 3 5 9 11 11 9 9 10 7 6 7 4 5 5 5 5 5 5 5 4 5 4
21 14 5 3 3 5 4 2 3 3 8 3 7 1 2 1 2 2 2 3 3 4 4 3 7 5 2 4 6 2 3 1 2 3 1 2 2 1 2 2 2 2 4 1 1 1 2 1 1 2 2 3 5 6 5 5 5 5 4 4 4 4 3 5 5 3 1 6 8 8 9 10 10 9 8 5 3 5 3 3 5 5 4 3 2 2 1
12 2 2 4 2 3 4 4 2 7 3 1 4 1 2 2 1 2 2 1 1 3 3 5 6 3 5 6 8 3 5 4 2 2 2 2 2 2 3 3 2 3 0 1 1 2 1 2 1 2 3 4 3 5 4 4 5 6 5 3 2 2 3 3 4 4 6 5 4 5 7 8 8 7 7 9 9 6 3 5 6 4 3 3 3 2 1
2 4 5 5 3 5 7 1 6 3 2 3 2 2 3 3 2 2 2 1 2 3 2 5 4 5 7 7 6 5 4 4 2 2 2 3 2 2 2 2 1 1 2 2 2 2 2 2 1 1 4 3 4 4 5 6 6 4 4 3 3 3 3 4 3 3 2 4 5 6 3 8 9 8 7 6 6 7 7 7 6 4 4 6 5 4 2
4 4 4 4 5 5 7 7 7 3 2 2 2 3 2 1 3 2 2 3 3 2 3 4 2 3 5 6 6 8 2 1 2 1 1 2 1 1 2 2 1 3 1 1 1 1 2 1 2 3 2 2 2 3 4 4 5 3 3 3 3 3 3 3 3 3 4 5 4 4 6 8 8 7 6 6 5 5 6 6 5 5 5 5 5 5 4
3 3 5 6 7 8 6 4 3 2 2 1 1 2 1 3 2 2 2 2 2 1 4 4 3 3 3 4 5 4 3 2 1 2 1 2 3 3 3 2 2 0 2 1 2 3 1 3 2 3 2 2 4 3 2 3 3 2 4 5 4 3 3 4 4 3 4 4 3 3 3 4 5 5 4 4 5 5 6 8 9 9 9 7 6 4 5
13 10 5 3 3 3 1 2 2 2 2 1 1 2 1 1 1 3 2 2 2 2 2 2 4 1 1 1 2 5 3 1 2 2 3 2 1 1 3 1 1 2 1 1 0 2 3 3 4 3 2 2 0 1 1 3 1 1 2 1 1 1 0 1 3 4 3 4 4 5 6 7 7 6 6 6 8 8 7 7 7 7 8 8 9 10 9
4 2 2 2 2 2 3 2 2 1 1 0 1 3 4 4 3 2 5 4 4 4 2 5 4 3 2 4 1 1 1 1 1 1 2 1 0 2 2 2 3 1 1 1 2 4 4 3 3 1 3 3 4 4 3 2 2 2 2 2 3 2 3 5 3 3 2 2 3 4 4 4 5 8 8 7 8 8 7 8 7 8 8 9 9 9 9
3 1 0 3 2 3 2 2 1 2 3 3 2 3 3 6 8 7 5 4 2 7 9 6 5 4 4 2 2 3 3 1 1 1 2 0 2 2 2 3 1 1 2 3 3 3 2 4 3 4 5 4 5 4 3 3 6 8 7 9 10 8 7 6 6 6 6 6 7 7 8 7 8 9 9 8 8 8 8 8 7 7 7 7 7 7 7
3 1 1 2 5 3 2 2 2 4 3 2 3 5 4 7 7 8 6 2 4 6 8 6 6 5 3 2 2 1 0 2 1 1 1 1 2 1 2 0 1 2 4 3 4 6 4 3 6 6 5 4 4 3 3 3 3 5 4 7 1 1 9 9 8 8 9 9 8 8 9 9 8 7 8 8 8 8 8 6 6 6 5 6 6 6 5
3 2 1 1 1 1 1 3 4 2 3 5 9 10 9 9 7 8 7 5 8 7 8 7 4 0 2 3 3 1 1 2 2 1 1 2 2 1 1 1 3 3 3 5 6 5 4 6 6 4 3 4 4 5 4 3 3 4 4 2 3 8 8 8 8 8 8 8 8 7 6 7 6 6 5 6 6 6 6 6 7 7 6 6 5 5 5
3 2 0 2 2 1 2 2 5 6 6 6 9 9 6 4 5 7 8 4 5 6 6 4 3 2 2 2 1 2 1 1 1 1 2 1 1 1 2 4 5 4 4 4 6 5 6 6 6 6 6 7 5 6 6 4 4 4 0 3 5 6 7 8 8 7 6 6 5 4 4 4 4 4 4 5 5 5 4 4 4 4 5 5 6 6 7
4 1 0 1 1 3 3 5 2 7 10 10 10 6 5 7 10 10 7 5 6 6 7 5 3 2 2 1 2 1 3 3 2 2 2 3 3 3 2 3 4 5 4 5 4 5 7 8 6 6 5 4 4 5 6 6 6 5 7 7 7 7 7 7 7 7 6 5 5 5 5 4 4 3 4 4 5 5 4 4 4 3 3 4 4 5 5
1 1 1 1 2 4 8 2 5 8 9 10 9 9 9 7 4 2 5 8 4 5 6 4 2 1 4 3 1 2 2 4 4 2 4 6 4 3 3 7 6 4 3 4 6 7 7 6 6 9 9 7 3 2 3 4 8 10 10 9 6 6 7 8 7 5 5 4 4 5 4 4 4 4 4 4 4 4 4 4 4 4 4 4 4 4 5
2 1 1 3 7 7 6 7 7 9 11 12 11 11 10 9 11 9 2 2 7 5 5 6 4 3 2 3 3 2 3 3 3 6 4 6 5 5 7 8 6 5 7 5 6 5 4 5 5 7 8 8 7 7 9 8 6 5 6 7 8 7 8 12 12 9 6 6 4 4 2 2 2 2 3 4 6 6 7 8 8 5 5 4 4 4 4
1 3 4 6 6 6 7 6 3 1 2 6 8 10 7 11 13 11 9 6 10 11 10 7 4 2 2 4 4 3 2 3 4 5 8 7 4 5 6 9 11 8 7 6 6 4 5 5 5 5 5 7 8 6 6 6 7 7 8 8 8 9 8 6 3 2 6 8 9 9 9 10 10 9 9 9 8 8 8 7 7 7 8 7 6 4 5
Wind_Direction
319 318 319 321 321 321 320 321 321 326 336 333 338 321 307 293 274 291 297 297 308 302 279 267 267 256 253 256 251 252 253 260 268 284 288 284 280 281 270 267 279 274 279 283 277 274 272 277 277 304 285 241 206 213 214 193 192 203 218 197 193 185 214 206 242 278 273 265 230 182 183 186 201 204 203 211 221 215 230 217 184 197 191 203 190 230 243
319 318 317 318 319 320 318 318 320 321 335 324 320 314 298 300 300 300 282 280 273 279 263 272 258 258 263 264 274 279 284 296 303 280 278 272 270 267 277 285 264 274 274 278 278 281 282 274 279 278 292 299 319 227 214 228 215 190 188 226 159 205 193 205 164 234 269 279 272 201 183 187 200 203 192 206 219 214 228 249 153 226 206 194 160 236 228
320 320 318 316 316 316 315 315 315 318 320 325 323 306 306 298 277 257 282 298 263 253 250 260 269 275 281 287 280 273 259 250 268 296 304 313 304 313 300 303 301 275 284 281 278 270 261 291 281 276 278 288 293 309 268 218 236 222 181 203 156 203 169 185 203 199 205 217 214 199 187 190 188 209 196 192 209 213 206 228 219 216 231 211 221 238 238
319 319 317 316 313 310 313 311 310 313 312 313 316 302 301 305 308 305 311 300 319 298 284 263 265 265 280 289 297 313 313 323 322 319 305 306 317 328 314 331 3 349 3 358 339 319 314 283 278 263 282 285 291 350 341 333 307 271 237 190 179 206 179 188 201 205 211 229 251 283 184 175 197 195 210 201 197 212 217 209 222 222 216 215 224 216 258
319 318 317 315 312 309 312 317 311 309 307 315 312 292 264 299 271 302 317 324 311 311 328 328 350 342 343 303 324 310 315 315 306 311 298 319 334 328 342 2 359 348 359 352 317 322 341 346 2 355 341 325 330 331 323 336 327 322 292 218 211 185 201 195 196 207 213 206 236 243 245 224 197 192 198 212 211 200 211 207 226 210 135 267 252 224 229
318 317 315 315 317 313 306 301 305 307 309 298 267 294 283 266 274 292 338 302 299 310 315 329 321 314 315 297 286 282 296 303 299 312 287 321 335 333 319 338 351 355 345 331 328 334 331 349 354 343 351 337 345 331 329 333 345 352 320 213 204 180 203 196 195 206 212 222 241 235 240 247 216 195 191 197 213 225 211 219 222 200 215 230 239 206 208
316 315 314 313 312 300 301 296 290 292 292 278 290 271 267 269 285 284 291 286 302 299 301 306 305 303 303 308 316 295 280 282 287 297 307 301 289 288 288 303 351 344 341 336 314 342 342 342 342 349 333 334 332 334 333 352 10 350 339 306 277 135 203 185 195 200 206 221 229 239 247 248 245 203 194 196 200 213 231 233 220 215 212 230 237 210 223
317 316 314 311 307 300 289 290 277 283 292 261 282 244 254 274 280 293 323 294 286 292 296 294 300 302 303 296 277 281 290 288 287 280 282 298 298 337 291 303 329 331 339 336 320 324 322 329 324 322 324 311 346 316 260 321 333 341 322 316 295 233 204 190 186 214 200 200 220 240 239 252 257 249 209 202 203 208 212 227 242 232 237 229 223 229 243
316 313 314 312 309 305 297 287 273 268 255 293 244 259 245 257 280 354 322 305 296 298 305 298 296 291 294 287 310 336 336 315 306 295 304 305 306 290 306 330 314 334 330 321 317 314 317 316 306 306 307 290 300 299 304 328 307 316 315 314 324 290 207 107 129 162 255 217 202 216 239 250 258 262 246 208 206 210 197 209 211 232 228 227 233 225 240
314 312 312 311 310 303 296 290 272 256 163 250 258 268 283 278 356 140 248 278 289 297 281 276 280 264 272 316 317 307 302 289 310 307 281 293 309 324 330 286 294 308 301 300 306 316 309 302 299 295 290 284 281 268 274 284 290 292 288 293 294 295 275 194 151 166 232 245 299 210 208 228 247 243 244 246 216 203 224 213 198 205 222 236 219 226 218
312 311 312 314 311 306 301 294 284 236 188 241 244 259 278 298 320 295 216 274 285 276 287 285 273 289 293 258 284 300 302 308 309 320 311 314 301 299 300 305 296 270 260 267 284 284 289 298 293 284 284 284 283 285 279 281 269 265 284 298 278 290 289 240 141 166 147 210 233 264 231 221 227 230 245 239 249 237 218 221 217 208 198 212 216 212 207
311 314 315 310 305 301 297 292 285 265 229 247 246 265 267 273 269 281 279 280 286 293 286 280 289 292 288 300 296 301 302 308 313 309 296 301 291 272 265 278 269 271 255 250 258 277 324 302 300 296 295 285 284 282 288 284 281 277 266 265 281 291 308 268 158 149 162 176 216 255 246 245 259 181 214 234 246 256 265 278 258 251 224 226 216 202 230
309 313 303 304 304 301 297 290 283 274 248 254 226 256 264 265 272 267 274 283 276 290 288 288 296 296 295 293 298 301 302 305 307 310 308 309 304 292 270 246 255 272 274 251 267 8 342 312 308 304 293 303 295 292 285 282 283 285 281 272 270 279 289 296 252 125 132 155 164 221 234 247 311 238 162 93 261 247 278 289 273 305 4 6 12 14 27
311 316 312 312 311 306 300 293 289 281 263 235 249 251 258 252 227 244 236 268 273 264 292 299 290 286 298 310 322 326 314 307 313 313 311 327 308 299 303 303 287 262 248 229 113 339 306 309 320 328 325 332 309 288 286 294 277 273 277 279 273 281 299 307 305 163 189 159 221 251 354 319 283 265 225 118 162 17 194 224 294 36 50 75 85 14 23
315 315 315 314 312 311 304 300 295 287 282 253 255 258 267 262 248 251 256 256 275 281 278 273 279 302 311 311 308 302 298 319 323 310 313 305 289 296 306 294 321 324 304 291 70 78 237 305 297 319 321 312 271 294 318 287 300 272 277 281 279 281 276 330 64 327 170 155 213 251 233 236 222 262 6 357 14 80 118 106 324 12 51 83 84 71 57
323 321 319 317 314 312 311 306 302 296 290 284 269 268 263 260 215 255 244 236 290 291 247 240 275 304 302 305 308 300 315 314 305 311 312 324 321 325 308 317 326 326 313 299 66 117 267 246 255 253 254 288 329 320 289 321 328 329 308 271 256 267 284 215 244 308 360 167 196 214 233 227 159 112 137 67 34 71 68 67 3 326 9 57 75 68 58
329 326 324 326 323 318 315 312 306 305 291 264 271 272 274 255 240 217 227 242 217 250 283 297 296 293 295 292 300 315 21 303 322 317 316 322 318 306 318 325 319 320 346 313 160 146 135 234 275 267 285 312 290 284 312 316 338 335 338 359 340 308 358 18 310 137 169 91 204 225 215 245 294 200 192 108 84 63 51 261 275 283 7 49 70 68 58
334 334 328 327 322 317 315 310 309 303 300 281 273 283 282 265 197 236 224 240 256 269 263 262 265 270 278 272 287 298 293 289 309 309 278 302 309 344 319 336 322 340 32 300 244 170 171 213 233 239 245 237 287 323 260 312 323 1 353 337 350 342 346 62 313 325 109 101 345 294 334 356 311 10 4 3 113 79 117 205 199 286 35 41 62 63 59
335 332 328 326 323 321 319 319 316 311 308 307 291 285 260 253 227 207 218 261 233 257 261 291 302 287 278 279 277 285 281 295 44 315 300 300 278 305 303 282 311 327 340 355 306 253 193 202 217 274 283 254 241 253 319 310 293 1 0 10 345 358 337 356 331 315 16 342 58 248 296 200 119 339 42 346 14 138 182 206 212 66 51 51 59 66 54
334 331 328 327 327 324 324 323 324 321 315 302 269 274 279 280 262 172 200 250 247 266 281 282 277 274 280 280 284 281 285 274 151 191 275 285 322 332 323 348 212 333 302 229 255 257 230 203 200 230 229 225 244 308 291 270 300 293 320 44 27 335 318 5 310 288 328 39 42 43 328 302 260 54 11 22 101 242 277 95 59 60 61 60 53 53 52
333 332 331 332 330 331 327 325 324 321 315 308 300 299 294 283 284 184 187 216 260 289 284 254 257 264 270 276 280 282 281 277 278 271 244 268 304 308 300 308 327 323 334 346 330 327 339 319 248 237 308 239 174 74 266 323 304 355 87 46 24 8 283 347 343 22 330 344 139 178 270 329 311 174 192 231 162 217 323 81 78 49 47 51 60 53 45
336 337 337 335 334 331 329 325 322 316 315 311 306 288 286 286 299 75 222 183 233 244 263 284 288 280 276 274 271 270 269 267 262 262 280 287 230 248 280 299 286 277 155 208 43 316 339 334 279 280 267 265 7 203 52 1 284 325 108 161 146 32 64 251 282 335 22 311 321 317 325 318 314 75 101 104 16 44 77 83 75 64 39 36 63 56 49
340 339 337 336 334 331 328 325 322 321 317 317 311 288 286 298 298 174 175 263 243 250 263 270 266 267 269 266 260 255 253 253 255 251 253 262 275 247 263 274 283 69 34 55 65 326 319 326 299 307 297 266 251 253 153 199 295 17 351 348 197 95 297 251 235 273 297 252 231 325 336 326 310 321 98 95 80 51 52 63 71 51 55 45 52 53 61
337 335 333 333 331 330 328 325 325 322 320 314 310 297 290 291 290 284 269 245 249 285 289 256 255 261 265 278 277 257 248 240 235 243 243 244 257 260 264 254 273 169 134 157 153 134 322 295 286 302 274 310 297 223 178 182 142 332 325 17 350 71 239 319 8 325 23 307 14 11 339 316 302 264 68 80 84 74 71 71 70 70 61 59 46 49 56
332 330 329 329 328 328 328 327 326 324 322 318 312 297 285 274 263 275 267 291 292 317 297 305 279 272 277 283 285 276 263 272 261 234 230 225 227 249 257 247 191 279 178 167 168 142 129 308 306 292 288 268 287 243 42 354 102 26 3 312 354 278 3 314 345 325 263 280 13 332 314 296 336 358 33 88 92 85 79 79 78 74 66 61 53 54 52
329 328 328 327 327 326 326 326 326 323 322 322 315 299 294 282 271 229 242 260 259 259 275 287 293 299 300 295 287 303 308 289 271 271 264 251 236 233 243 266 274 219 175 158 163 171 203 220 247 281 283 292 66 316 317 193 276 337 197 280 216 280 310 296 330 307 293 283 108 355 324 310 1 25 4 359 56 90 82 79 75 71 67 63 58 53 55
327 326 324 324 323 323 323 323 322 321 321 317 310 296 284 282 270 255 242 259 306 276 229 254 287 303 322 311 300 289 283 272 269 260 244 237 242 234 228 228 235 257 279 271 219 236 150 212 240 273 277 290 251 232 226 278 230 307 285 283 326 282 260 306 336 337 342 22 1 312 23 307 332 22 19 346 9 70 83 74 66 60 64 64 67 57 52
322 320 320 320 320 318 320 319 317 319 318 319 304 292 276 272 267 247 207 178 193 263 302 294 294 299 306 283 277 278 269 268 271 259 256 248 227 222 228 230 222 233 224 207 235 223 233 268 266 313 282 348 312 284 186 209 217 235 224 296 24 298 350 7 5 312 300 312 313 353 323 330 335 345 356 4 6 36 65 71 76 70 64 61 65 63 52
315 315 315 314 314 315 314 315 315 315 317 319 304 294 280 253 261 284 57 208 210 262 263 276 280 276 288 318 315 301 292 274 252 253 246 244 246 228 220 218 210 212 234 234 233 248 172 222 185 245 266 156 231 275 314 289 81 265 185 8 24 242 288 294 299 301 268 264 257 104 292 87 341 359 17 8 2 39 65 66 70 75 73 71 69 62 65
310 309 309 309 310 311 309 309 310 309 320 316 312 299 292 17 350 249 239 165 165 201 290 308 305 294 305 296 290 288 291 292 268 244 238 227 228 239 232 198 197 213 238 237 168 251 247 323 248 262 245 160 217 253 288 54 279 243 174 314 347 318 322 314 321 312 289 311 225 186 214 128 310 1 40 25 11 27 55 60 68 76 76 75 75 69 61
307 304 304 304 304 305 304 302 302 305 309 295 306 299 287 272 197 238 207 133 147 205 287 272 280 296 286 267 277 296 322 308 290 265 244 237 238 229 230 220 193 193 199 209 226 233 137 198 338 295 259 198 227 307 269 115 278 262 23 350 359 327 338 321 316 310 299 271 186 168 129 95 248 321 40 38 38 27 47 61 68 76 84 82 80 84 76
305 303 301 300 299 298 299 298 294 292 284 277 250 242 257 300 299 281 297 303 323 300 276 291 291 284 302 300 306 315 284 270 260 253 243 257 242 216 222 203 234 190 209 200 19 40 267 147 219 232 247 26 322 251 262 224 244 243 349 328 345 350 344 343 337 333 308 320 158 122 88 59 23 49 68 27 26 24 41 53 53 59 69 74 77 75 76
304 301 299 295 291 292 292 289 286 276 269 274 288 289 281 277 273 269 265 253 234 242 258 264 263 301 277 304 319 306 335 313 80 112 339 3 293 178 225 184 214 239 131 97 165 162 349 352 302 260 22 136 212 222 254 233 218 100 2 341 325 344 354 354 334 306 294 348 321 136 130 109 74 54 64 60 37 22 35 40 33 48 66 70 72 71 68
302 299 296 292 291 291 283 274 274 269 262 260 263 238 234 235 246 250 236 226 244 253 204 246 282 277 284 307 289 339 8 348 348 2 331 160 319 249 238 217 150 205 149 200 128 136 123 235 243 299 103 197 220 246 241 259 128 119 50 4 346 339 1 334 334 336 347 26 15 99 117 124 122 94 72 77 75 56 46 44 49 58 61 67 68 63 61
304 301 295 294 294 288 286 283 280 240 251 254 253 265 105 46 27 147 167 183 238 228 216 238 222 277 291 296 288 302 323 334 9 11 310 12 23 27 346 38 32 206 205 60 119 221 228 246 351 272 232 156 208 217 208 155 145 92 86 46 16 13 26 350 341 352 6 41 49 88 131 139 124 117 117 107 102 90 76 66 60 64 63 51 52 66 60
302 299 298 297 290 288 289 249 209 239 234 232 241 177 169 172 154 168 204 209 231 267 271 271 230 249 281 297 319 329 336 338 350 299 321 308 356 41 357 58 51 34 1 12 259 286 254 358 340 276 250 236 220 36 91 111 105 87 67 55 34 24 41 11 311 351 37 52 79 80 65 74 96 117 124 121 119 117 110 96 78 74 80 77 66 64 71
305 304 298 289 276 228 242 249 177 190 223 198 91 111 160 207 248 253 216 234 206 253 250 275 266 256 245 284 282 295 337 278 260 263 294 47 88 303 340 67 332 337 312 247 218 219 220 107 148 278 296 191 102 53 73 68 73 71 68 61 44 33 15 333 284 318 71 62 56 58 59 51 35 27 74 78 71 104 110 101 104 101 99 99 99 90 94
305 302 280 276 259 289 302 202 223 180 216 173 121 143 154 116 207 196 199 227 201 183 215 214 246 266 271 254 252 242 302 290 165 235 189 208 148 231 99 119 190 197 237 335 350 34 21 273 226 278 308 50 89 64 54 57 60 62 59 53 41 27 23 13 359 3 83 87 70 67 58 53 49 34 26 25 64 98 110 134 121 113 105 111 126 151 146
314 280 233 221 208 288 290 330 108 151 209 37 113 301 228 182 236 262 215 239 193 226 186 217 246 206 214 243 260 262 232 281 299 223 189 169 138 212 161 197 203 207 109 316 279 163 105 348 323 307 38 5 50 34 31 43 43 30 29 56 42 22 15 37 18 36 54 61 61 79 99 92 77 51 28 37 20 5 40 60 67 80 111 139 158 145 96
307 318 324 313 311 324 318 319 159 243 224 216 177 168 266 171 131 246 140 214 240 228 184 243 230 237 219 231 255 286 174 197 221 260 177 152 184 165 135 176 80 215 221 193 213 197 151 129 241 41 71 22 41 13 11 25 51 30 327 34 57 44 42 47 39 11 36 53 49 36 50 125 133 125 107 77 34 21 27 48 40 35 44 52 53 60 70
346 325 301 305 328 313 305 310 304 266 257 218 225 222 246 261 203 240 226 227 236 244 219 258 198 233 235 226 205 248 236 298 255 125 288 224 70 355 165 184 149 205 178 150 165 227 214 90 58 51 73 333 40 6 40 52 54 7 313 18 36 32 46 50 44 28 24 30 28 49 49 50 54 71 72 69 60 48 25 31 52 57 41 43 46 43 41
334 270 280 281 272 273 277 261 201 254 230 234 279 275 217 245 209 235 221 266 296 93 200 217 258 268 283 188 210 201 254 194 242 202 196 243 164 181 138 132 58 353 116 130 181 230 144 68 55 71 67 44 40 2 341 81 126 114 47 30 18 25 33 58 65 38 20 25 18 45 50 71 78 65 63 72 66 52 45 44 39 33 30 28 36 44 41
297 276 238 295 298 286 324 310 49 345 312 329 325 291 269 310 319 303 314 205 219 236 326 169 264 228 254 74 269 212 267 108 205 214 199 215 113 288 94 66 91 84 146 253 250 42 52 56 66 57 317 56 255 290 66 60 62 125 130 155 241 257 234 76 69 59 33 38 47 55 59 59 56 58 58 56 53 52 46 44 41 39 39 42 40 36 31
235 262 275 224 268 304 55 352 315 7 301 200 331 320 333 316 295 308 318 327 343 306 355 336 335 317 310 194 261 7 254 226 236 242 224 259 111 112 118 56 48 73 164 51 46 49 46 44 73 83 20 26 27 23 10 19 93 65 70 94 150 188 142 112 99 109 65 36 64 66 71 69 74 72 66 56 52 55 50 46 44 49 49 47 42 38 33
267 220 9 6 354 284 24 359 7 64 329 312 310 287 314 308 300 307 295 316 309 297 305 301 287 274 304 143 180 207 217 254 145 270 319 67 73 34 68 136 188 195 74 60 61 55 40 52 35 25 13 21 33 4 348 16 27 44 52 49 31 36 47 58 70 74 73 58 58 56 55 55 65 62 57 56 55 52 54 52 43 44 48 51 50 44 33
293 299 307 348 335 337 40 316 310 336 294 281 311 286 276 286 301 295 276 250 274 283 286 287 292 311 321 130 115 102 196 253 205 43 347 280 91 24 45 134 223 77 55 42 51 50 56 46 41 35 9 4 343 348 357 32 84 130 115 87 248 57 69 66 63 56 53 55 56 58 60 60 64 68 66 60 56 54 53 53 49 51 45 49 49 54 55
288 267 178 152 350 331 64 348 323 274 281 299 301 304 302 301 300 289 281 272 274 290 296 292 282 324 308 350 14 360 62 4 45 336 327 14 58 165 228 342 47 24 45 51 60 68 50 34 40 45 323 319 353 347 356 3 0 30 40 346 28 67 79 73 68 70 68 66 65 59 54 53 50 53 61 64 61 60 59 54 51 47 49 49 39 39 39
279 261 300 31 326 335 339 282 266 274 261 261 290 303 297 295 344 3 355 334 281 285 289 315 296 230 237 171 159 319 310 208 73 78 45 78 214 8 52 46 52 35 31 54 53 36 41 28 16 22 24 32 15 358 354 3 348 317 247 104 97 92 89 86 78 70 64 63 61 61 63 63 60 54 52 56 60 51 54 59 57 50 48 47 52 46 44
246 320 263 59 306 227 217 203 241 341 343 330 316 310 336 14 13 348 335 325 327 308 306 306 357 326 1 41 332 309 20 332 35 343 342 359 36 19 34 59 41 56 16 31 49 36 33 38 29 26 18 35 352 11 32 345 326 25 49 61 71 74 67 71 77 78 74 63 46 43 40 39 46 51 56 55 58 50 44 49 55 49 52 60 60 58 54
288 287 269 358 315 9 2 23 11 7 346 335 344 348 346 341 49 252 292 332 307 302 294 280 221 250 359 349 7 356 38 355 37 356 26 32 23 41 54 68 46 59 47 24 39 31 35 42 34 45 42 33 40 322 280 73 58 52 38 33 12 34 60 71 75 77 76 78 77 64 48 36 27 28 25 30 45 50 41 31 27 33 40 39 49 49 54
224 259 321 15 13 11 353 19 8 356 354 355 347 344 344 338 347 352 74 214 302 352 17 22 13 12 354 5 359 23 18 329 27 26 25 24 5 44 55 71 60 53 59 45 49 47 41 36 40 42 30 25 13 25 33 42 44 49 46 37 38 38 46 41 39 25 34 44 54 81 62 28 5 11 12 36 43 31 29 23 18 16 17 20 36 40 35
325 4 347 13 10 13 12 19 38 99 241 309 334 344 338 3 2 350 337 353 12 24 27 11 9 6 28 32 7 14 352 22 31 11 41 41 2 45 56 54 54 47 44 40 26 23 35 41 46 48 44 42 26 24 38 23 34 33 49 43 39 36 36 49 68 41 47 46 39 40 40 36 35 37 39 38 31 30 28 23 16 22 29 24 3 356 18